[[{"header":{"parameterUnit":"m.s-1","parameterCategory":1,"la1":30.2992,"la2":30.254,"lo1":-89.0895,"lo2":-89.0443,"dy":0.0025,"dx":0.0025,"nx":19,"ny":19,"refTime":"2026-05-09T09:00:00:Z","depth":0,"parameterNumber":2,"parameterNumberName":"U-component_of_WINDS"},"data":[0,0,0,-0.5791,-0.5794,-0.5989,-0.599,-0.6192,-0.6193,0,0,0,0,0,0,0,0,0,0,0,-0.5703,-0.5703,-0.5791,-0.5795,-0.5989,-0.599,-0.6192,-0.6193,0,0,0,0,0,0,0,0,0,0,0,-0.5703,-0.5703,-0.5704,-0.5795,-0.5989,-0.599,-0.6191,-0.6062,0,0,0,0,0,0,0,0,0,0,-0.5881,-0.577,-0.5703,-0.5704,-0.5796,-0.5988,-0.599,-0.6056,-0.607,-0.6083,0,-0.6085,0,-0.6142,-0.6204,-0.6204,0,0,0,-0.5818,-0.5758,-0.5838,-0.5704,-0.5798,-0.5988,-0.5908,-0.6064,-0.608,-0.6101,-0.6089,-0.6098,-0.6145,-0.6205,-0.6205,-0.6203,-0.6202,0,0,-0.5807,-0.5722,-0.5827,-0.5846,-0.5811,-0.5901,-0.5913,-0.6074,-0.6056,-0.609,-0.6103,-0.6149,-0.6206,-0.6207,-0.6204,-0.6202,0,0,0,-0.5761,-0.5713,-0.5791,-0.5837,-0.5875,-0.5906,-0.592,-0.6049,-0.6081,-0.6106,-0.6151,-0.6206,-0.6208,-0.6205,-0.6203,-0.6066,0,0,0,-0.5755,-0.5687,-0.5785,-0.5734,-0.5871,-0.5964,-0.589,-0.607,-0.6091,-0.615,-0.6207,-0.621,-0.6207,-0.6204,-0.6073,-0.6015,0,0,0,-0.5701,-0.5681,-0.5698,-0.5729,-0.581,-0.5964,-0.6006,-0.6077,-0.6117,-0.6204,-0.621,-0.6207,-0.6205,-0.6078,-0.6025,-0.599,0,0,0,-0.5618,-0.5573,-0.5694,-0.5663,-0.5808,-0.5876,-0.6006,-0.6062,-0.612,-0.6207,-0.6206,-0.6204,-0.608,-0.6031,-0.5995,-0.5944,-0.5915,0,0,-0.5514,-0.5558,-0.5546,-0.566,-0.5685,-0.5854,-0.5861,-0.5995,-0.6082,-0.6158,-0.6159,-0.6071,-0.6026,-0.5991,-0.5781,-0.5757,0,0,0,-0.5484,-0.5474,-0.55,-0.5551,-0.5651,-0.5734,-0.5876,-0.5927,-0.5996,-0.6103,-0.6051,-0.6027,-0.6011,-0.599,-0.597,-0.5961,-0.619,-0.6191,-0.6191,-0.5214,-0.5328,-0.5316,-0.5452,-0.55,-0.5648,-0.5698,-0.5792,-0.5892,-0.5878,-0.5901,-0.576,-0.5732,-0.5718,-0.5707,-0.5884,-0.5883,-0.5883,-0.5883,-0.5073,-0.5077,-0.5212,-0.5249,-0.5369,-0.5403,-0.5545,-0.5615,-0.5664,-0.5752,-0.5743,-0.5827,-0.5688,-0.5685,-0.5874,-0.5875,-0.5876,-0.5877,-0.5878,-0.4908,-0.493,-0.4991,-0.5078,-0.5132,-0.5274,-0.5315,-0.5424,-0.5527,-0.5518,-0.5555,-0.5558,-0.5574,-0.5528,-0.5528,-0.5527,-0.5527,-0.5527,-0.5526,-0.4713,-0.4787,-0.4807,-0.4911,-0.4959,-0.5036,-0.5186,-0.5237,-0.5322,-0.5398,-0.5399,-0.5501,-0.5653,-0.5689,-0.5519,-0.552,-0.5521,-0.5522,-0.5523,-0.4526,-0.4586,-0.4617,-0.4664,-0.4798,-0.4845,-0.4984,-0.5078,-0.5137,-0.5154,-0.5259,-0.5354,-0.5407,-0.5424,-0.5454,-0.5234,-0.5234,-0.5234,-0.5234,-0.4387,-0.4424,-0.4482,-0.4551,-0.4632,-0.4761,-0.4795,-0.4912,-0.5042,-0.5086,-0.5134,-0.5184,-0.5196,-0.5242,-0.5263,-0.5293,-0.5037,-0.5037,-0.5037,-0.4279,-0.433,-0.4336,-0.4463,-0.4575,-0.4669,-0.4705,-0.4781,-0.4942,-0.5031,-0.5123,-0.5131,-0.5213,-0.5233,-0.5322,-0.5352,-0.5409,0,0]},{"header":{"parameterUnit":"m.s-1","parameterCategory":1,"la1":30.2992,"la2":30.254,"lo1":-89.0895,"lo2":-89.0443,"dy":0.0025,"dx":0.0025,"nx":19,"ny":19,"refTime":"2026-05-09T09:00:00:Z","depth":0,"parameterNumber":3,"parameterNumberName":"V-component_of_WINDS"},"data":[0,0,0,2.2138,2.2141,2.2267,2.2268,2.2432,2.2434,0,0,0,0,0,0,0,0,0,0,0,2.2105,2.2106,2.2138,2.2141,2.2267,2.2268,2.2432,2.2434,0,0,0,0,0,0,0,0,0,0,0,2.2104,2.2106,2.2107,2.2142,2.2267,2.2268,2.2432,2.2335,0,0,0,0,0,0,0,0,0,0,2.2211,2.2185,2.2105,2.2108,2.2142,2.2267,2.2268,2.233,2.2341,2.2377,0,2.2413,0,2.2427,2.2445,2.2446,0,0,0,2.2137,2.2176,2.2207,2.2108,2.2144,2.2267,2.2209,2.2336,2.2348,2.2392,2.2415,2.2421,2.2429,2.2446,2.2447,2.2678,2.268,0,0,2.213,2.2129,2.2199,2.2215,2.2199,2.2205,2.2213,2.2343,2.2368,2.2416,2.2425,2.2432,2.2448,2.2449,2.2677,2.2679,0,0,0,2.2113,2.2124,2.2152,2.2209,2.2231,2.2209,2.2218,2.2362,2.2371,2.2427,2.2434,2.2449,2.2451,2.2676,2.2678,2.2741,0,0,0,2.2108,2.2114,2.2149,2.2149,2.2229,2.2299,2.2234,2.2362,2.2377,2.2433,2.2449,2.2452,2.2674,2.2677,2.2736,2.277,0,0,0,2.2095,2.2113,2.2133,2.2149,2.2204,2.2297,2.2313,2.2366,2.2382,2.2446,2.2453,2.2674,2.2676,2.2732,2.2763,2.2831,0,0,0,2.208,2.2185,2.2134,2.2254,2.2203,2.2336,2.2312,2.2411,2.2474,2.2449,2.2675,2.2678,2.2731,2.2759,2.2826,2.2887,2.2913,0,0,2.2212,2.2201,2.2272,2.223,2.2372,2.2317,2.2468,2.2524,2.253,2.2628,2.2633,2.2738,2.2762,2.283,2.3059,2.3079,0,0,0,2.2314,2.2365,2.2403,2.2464,2.2512,2.2556,2.259,2.2612,2.2696,2.2581,2.2781,2.2796,2.2835,2.2864,2.2882,2.2915,2.2691,2.2691,2.2691,2.2498,2.2502,2.262,2.264,2.27,2.2736,2.2784,2.2818,2.2802,2.285,2.2878,2.3017,2.3051,2.3064,2.3099,2.2911,2.2912,2.2912,2.2912,2.2692,2.2764,2.2745,2.2852,2.2855,2.2943,2.2982,2.2969,2.305,2.2995,2.303,2.2969,2.3087,2.3117,2.2917,2.2916,2.2915,2.2915,2.2915,2.2812,2.2848,2.2874,2.2965,2.3034,2.3049,2.313,2.3129,2.3129,2.3164,2.3194,2.3193,2.3191,2.3178,2.3179,2.3179,2.318,2.318,2.318,2.2926,2.2954,2.3024,2.3086,2.3126,2.3179,2.3217,2.3255,2.3298,2.329,2.3291,2.327,2.3098,2.3055,2.3188,2.3187,2.3186,2.3185,2.3184,2.3119,2.3076,2.3184,2.3225,2.3298,2.3366,2.3365,2.3444,2.3476,2.3516,2.3489,2.3362,2.335,2.3336,2.33,2.3488,2.3488,2.3488,2.3488,2.322,2.3215,2.3326,2.3391,2.3455,2.3466,2.3585,2.3616,2.3641,2.366,2.3633,2.3586,2.3572,2.3567,2.3548,2.3515,2.3753,2.3754,2.3754,2.3339,2.3341,2.3443,2.347,2.3528,2.3577,2.3689,2.3763,2.3781,2.3765,2.3676,2.3664,2.3587,2.3562,2.3542,2.3513,2.3451,0,0]}]]